Aurora, CO

11:21 AM MST on February 07, 2016 (GMT -0700)
Buckley Air Force Base

Weather History for KBKF - February, 2013

Change the Weather History Date:

Saturday, February 23, 2013

  Actual Average Record
Temperature  
Mean Temperature 28 °F -  
Max Temperature 41 °F 42 °F 73 °F (2002)
Min Temperature 14 °F 21 °F 1 °F (2003)
Degree Days  
Heating Degree Days 38    
Moisture  
Dew Point 17 °F    
Average Humidity 64    
Maximum Humidity 100    
Minimum Humidity 42    
Precipitation  
Precipitation 0.00 in - - ()
Snow  
Snow 0.00 in - - ()
Snow Depth 2.00 in    
Sea Level Pressure  
Sea Level Pressure 29.73 in    
Wind  
Wind Speed 10 mph (SSE)    
Max Wind Speed 18 mph    
Max Gust Speed -    
Visibility 9 miles    
Events Snow    
Averages and records for this station are not official NWS values.
T = Trace of Precipitation, MM = Missing Value Source: NWS Daily Summary

Daily Weather History Graph

Daily Weather History Graph

Search for Another Location

Airport or City:

Trip Planner

Search our weather history database for the weather conditions in past years. The results will help you decide how hot, cold, wet, or windy it might be!

Date:

Astronomy

Feb. 23, 2013 Rise Set
Actual Time 6:40 AM MST 5:44 PM MST
Civil Twilight 6:13 AM MST 6:12 PM MST
Nautical Twilight 5:41 AM MST 6:43 PM MST
Astronomical Twilight 5:10 AM MST 7:14 PM MST
Moon 3:57 PM MST (2/23) 5:04 AM MST (2/23)
Length of Visible Light 11h 59m
Length of Day
11h 04m
Waxing Gibbous, 95% of the Moon is Illuminated
Feb 23
Waxing Gibbous
Feb 25
Full
Mar 4
Last Quarter
Mar 11
New
Mar 19
First Quarter

Hourly Weather History & Observations

Time (MST) Temp. Windchill Dew Point Humidity Pressure Visibility Wind Dir Wind Speed Gust Speed Precip Events Conditions
12:55 AM 17.6 °F 5.0 °F 12.2 °F 79% 29.90 in 10.0 mi SSW 11.5 mph - N/A   Partly Cloudy
1:55 AM 15.8 °F 5.1 °F 8.6 °F 73% 29.87 in 10.0 mi SSW 8.1 mph - N/A   Partly Cloudy
2:55 AM 14.0 °F 2.0 °F 5.0 °F 67% 29.87 in 10.0 mi South 9.2 mph - N/A   Partly Cloudy
3:55 AM 14.0 °F 3.9 °F 5.0 °F 67% 29.85 in 10.0 mi SSW 6.9 mph - N/A   Partly Cloudy
4:55 AM 14.0 °F 2.0 °F 5.0 °F 67% 29.83 in 10.0 mi South 9.2 mph - N/A   Partly Cloudy
5:55 AM 17.6 °F 5.7 °F 5.0 °F 58% 29.83 in 10.0 mi South 10.4 mph - N/A   Mostly Cloudy
6:55 AM 19.4 °F 7.2 °F 6.8 °F 58% 29.81 in 70.0 mi South 11.5 mph - N/A   Mostly Cloudy
7:55 AM 19.4 °F 7.2 °F 5.0 °F 54% 29.82 in 70.0 mi South 11.5 mph - N/A   Mostly Cloudy
8:55 AM 28.4 °F 20.4 °F 8.6 °F 43% 29.81 in 70.0 mi SSW 8.1 mph - N/A   Mostly Cloudy
9:55 AM 32.0 °F 24.8 °F 14.0 °F 48% 29.77 in 70.0 mi SSE 8.1 mph - N/A   Mostly Cloudy
10:55 AM 37.4 °F 33.8 °F 17.6 °F 45% 29.74 in 70.0 mi SSE 4.6 mph - N/A   Mostly Cloudy
11:55 AM 39.2 °F 35.0 °F 17.6 °F 42% 29.71 in 70.0 mi East 5.8 mph - N/A   Mostly Cloudy
12:55 PM 39.2 °F 33.6 °F 19.4 °F 45% 29.67 in 70.0 mi ESE 8.1 mph - N/A   Mostly Cloudy
1:55 PM 41.0 °F 35.2 °F 23.0 °F 49% 29.64 in 70.0 mi East 9.2 mph - N/A   Mostly Cloudy
2:55 PM 39.2 °F 31.2 °F 23.0 °F 52% 29.61 in 70.0 mi East 13.8 mph - N/A   Mostly Cloudy
3:55 PM 41.0 °F 34.7 °F 24.8 °F 53% 29.61 in 70.0 mi East 10.4 mph - N/A   Scattered Clouds
4:55 PM 35.6 °F 29.9 °F 23.0 °F 60% 29.63 in 70.0 mi NE 6.9 mph - N/A   Mostly Cloudy
5:55 PM 32.0 °F 27.5 °F 21.2 °F 64% 29.64 in 70.0 mi East 4.6 mph - N/A   Mostly Cloudy
6:55 PM 28.4 °F 18.0 °F 24.8 °F 86% 29.66 in 25.0 mi NW 12.7 mph - N/A   Mostly Cloudy
7:55 PM 32.0 °F 22.5 °F 23.0 °F 69% 29.69 in 10.0 mi NW 12.7 mph - N/A   Overcast
8:55 PM 30.2 °F 21.9 °F 23.0 °F 75% 29.67 in 10.0 mi NNW 9.2 mph - N/A   Overcast
9:55 PM 28.4 °F 19.7 °F 23.0 °F 80% 29.67 in 10.0 mi WNW 9.2 mph - N/A   Overcast
10:55 PM 28.4 °F 17.0 °F 23.0 °F 80% 29.67 in 7.0 mi NNW 15.0 mph - N/A   Overcast
11:01 PM 28.4 °F 16.6 °F 23.0 °F 80% 29.67 in 7.0 mi NNW 16.1 mph - N/A Snow Light Snow
11:55 PM 28.4 °F 15.8 °F 28.4 °F 100% 29.68 in 7.0 mi NNW 18.4 mph - N/A Snow Light Snow